SCP
0 0 0 0 0 0 0 0 0 0 0 0 0 0 0 0 0 0 0 0 0 0 0 0 0 0 0 0 0 0 0 0 0 0 0 0 0 0 0 0 0 0 0 0
0 0 0 0 0 0 0 0 0 0 0 0 0 0 0 0 0 0 0 0 0 0 0 0 0 0 0 0 0 0 0 0 0 0 0 0 0 0 0 0 0 0 0 0
0 0 0 0 0 0 0 0 0 0 0 0 0 0 0 0 0 0 0 0 0 0 0 0 0 0 0 0 0 0 0 0 0 0 0 0 0 0 0 0 0 0 0 0
0 0 0 0 0 0 0 0 0 0 0 0 0 0 0 0 0 0 0 0 0 0 0 0 0 0 0 0 0 0 0 0 0 0 0 0 0 0 0 0 0 0 0 0
0 0 0 0 0 0 0 0 0 0 0 0 0 0 0 0 0 0 0 0 0 0 0 0 0 0 0 0 0 0 0 0 0 0 0 0 0 0 0 0 0 0 0 0
0 0 0 0 0 0 0 0 0 0 0 0 0 0 0 0 0 0 0 0 0 0 0 0 0 0 0 0 0 0 0 0 0 0 0 0 0 0 0 0 0 0 0 0
0 0 0 0 0 0 0 0 0 0 0 0 0 0 0 0 0 0 0 0 0 0 0 0 0 0 0 0 0 0 0 0 0 0 0 0 0 0 0 0 0 0 0 0
0 0 0 0 0 0 0 0 0 0 0 0 0 0 0 0 0 0 0 0 0 0 0 0 0 0 0 0 0 0 0 0 0 0 0 0 0 0 0 0 0 0 0 0
0 0 0 0 0 0 0 0 0 0 0 0 0 0 0 0 0 0 0 0 0 0 0 0 0 0 0 0 0 0 1 1 1 0 0 0 0 0 0 0 0 0 0 0
0 0 0 0 0 0 0 0 0 0 0 0 0 0 0 0 0 0 0 0 0 0 0 0 0 0 0 0 0 1 1 1 1 1 1 1 0 0 0 0 0 0 0 0
0 0 0 0 0 0 0 0 0 0 0 0 0 0 0 0 0 0 0 0 0 0 0 0 0 0 0 0 0 1 1 1 1 1 1 1 1 0 0 0 0 0 0 0
0 0 0 0 0 0 0 0 0 0 0 0 0 0 0 0 0 0 0 0 0 0 0 0 0 0 0 0 0 1 1 1 0 0 1 1 0 0 0 0 0 0 0 0
0 0 0 0 0 0 0 0 0 0 0 0 0 0 0 0 0 0 0 0 0 0 0 0 0 0 0 0 0 1 1 1 0 0 0 0 0 0 0 0 1 1 1 1
0 0 0 0 0 0 0 0 0 0 0 0 0 0 0 0 0 0 0 0 0 0 0 0 0 0 0 0 1 1 1 1 1 0 0 1 0 0 0 0 0 1 0 0
0 0 0 0 0 0 0 0 0 0 0 0 0 0 0 0 0 0 0 0 0 0 0 1 1 1 1 1 1 1 1 1 1 1 1 1 1 0 0 0 0 0 0 0
0 0 0 0 0 0 0 0 0 0 0 0 0 0 0 0 0 0 0 0 0 0 0 1 1 1 1 1 1 1 1 1 1 1 1 1 1 0 0 0 0 0 0 0
0 0 0 0 0 0 0 0 0 0 0 0 0 0 0 0 0 0 0 0 0 0 1 1 1 1 1 1 1 1 1 1 1 1 1 1 1 1 0 0 0 0 0 0
0 0 0 0 0 0 0 0 0 0 0 0 0 0 0 0 0 0 0 0 0 0 1 1 1 1 1 1 1 1 1 1 1 1 1 1 1 1 1 0 0 0 0 0
0 0 0 0 0 0 0 0 0 0 0 0 0 0 0 0 0 0 0 0 0 0 1 1 1 1 1 1 1 1 1 1 1 1 1 1 1 1 1 1 0 0 0 0
0 0 0 0 0 0 0 0 0 0 0 0 0 0 0 0 0 0 0 0 0 1 1 1 1 1 1 1 1 1 1 1 1 1 1 1 1 1 1 1 0 0 0 0
0 0 0 0 0 0 0 0 0 0 0 0 0 0 0 0 0 0 0 0 0 1 1 1 1 1 1 1 1 1 1 1 1 1 1 1 1 1 1 1 0 0 0 0
0 0 0 0 0 0 0 0 0 0 0 0 0 0 0 0 0 0 1 1 1 1 1 1 1 1 1 1 1 1 1 1 1 1 1 1 1 1 1 1 0 0 0 0
0 0 0 0 0 0 0 0 0 0 0 0 0 0 0 0 0 0 1 0 1 1 1 1 1 1 1 1 1 1 1 1 1 1 1 1 1 1 1 1 0 0 0 0
0 0 0 0 0 0 0 0 0 0 0 0 0 0 0 0 1 1 1 1 1 1 1 1 1 1 1 1 1 1 1 1 1 1 1 1 1 1 1 0 0 0 0 0
0 0 0 0 0 0 0 0 0 0 0 0 0 0 0 0 1 1 1 1 1 1 1 1 1 1 1 1 1 1 1 1 1 1 1 1 1 1 0 0 0 0 0 0
0 0 0 0 0 0 0 0 0 0 0 0 0 0 0 0 0 1 1 1 1 1 1 1 1 1 1 1 1 1 1 1 1 1 1 1 1 1 0 0 0 0 0 0
Wind_Speed
9 10 10 9 9 7 6 7 6 4 3 6 6 5 5 6 6 6 6 7 7 6 6 6 6 6 6 5 5 5 5 5 4 4 3 3 3 2 2 2 2 1 1 1
10 12 9 6 7 8 8 8 6 4 4 5 5 6 5 6 7 6 6 6 6 6 7 7 7 7 6 6 5 5 5 5 5 3 3 2 2 2 2 1 2 2 2 2
12 5 6 9 10 10 10 9 7 5 5 7 7 8 7 6 7 6 6 6 6 6 6 7 7 6 6 6 5 4 4 5 5 4 3 3 3 2 2 2 2 2 2 2
10 7 8 11 11 11 9 6 7 7 8 6 8 6 7 8 8 8 7 7 6 6 6 7 7 7 6 6 5 5 5 4 4 5 4 4 3 2 2 2 1 2 2 2
8 9 11 11 10 10 5 4 7 8 9 7 8 8 4 8 9 9 8 7 7 7 7 7 7 7 7 6 6 5 5 4 4 4 4 4 3 2 2 1 2 2 2 2
8 7 9 8 7 8 5 6 7 9 9 10 7 8 5 6 7 7 8 8 8 8 8 7 7 7 7 6 6 6 6 5 5 4 4 3 2 2 2 2 2 2 2 2
11 10 10 8 9 10 10 9 7 9 9 7 5 8 4 3 4 5 7 8 8 8 8 8 8 8 8 8 7 6 6 5 5 5 4 3 3 3 3 3 2 2 2 2
10 10 11 10 10 8 12 12 8 7 7 5 6 8 2 3 3 4 6 7 7 7 7 7 7 7 7 8 8 7 7 6 5 5 4 3 3 2 2 2 2 2 2 1
7 7 8 9 10 10 12 12 10 9 8 8 6 5 5 5 6 6 7 7 8 8 8 7 7 7 7 7 7 7 7 6 6 5 4 4 2 1 1 1 2 1 1 1
5 6 7 8 9 10 10 9 8 10 8 9 8 9 6 9 8 8 8 8 8 8 8 7 6 6 6 6 7 6 6 6 5 5 4 3 3 2 2 1 1 1 0 1
6 7 7 10 11 11 11 12 10 9 9 9 8 4 1 4 6 7 8 8 8 7 8 7 6 6 7 6 6 6 6 6 5 4 4 3 2 2 2 2 1 1 0 0
6 7 8 9 6 7 11 12 12 10 9 10 10 3 4 3 4 6 7 7 7 7 7 7 7 7 6 6 6 6 5 5 5 5 4 3 2 2 2 2 1 1 1 1
4 6 9 9 10 10 11 11 12 11 10 9 11 4 5 4 5 6 6 7 7 7 6 6 6 6 6 6 6 6 5 5 5 5 5 4 3 3 2 1 1 1 1 1
6 8 10 10 6 7 10 12 12 13 11 10 11 7 5 6 6 6 6 7 7 7 6 6 6 6 6 6 6 5 5 5 5 5 5 4 3 3 2 2 2 1 1 1
6 9 10 10 8 8 11 11 12 14 13 11 9 8 6 5 6 6 6 7 7 7 7 7 6 6 7 6 6 6 6 6 5 6 5 4 4 3 3 2 2 2 1 1
5 8 9 10 8 9 10 12 12 12 12 11 10 8 3 3 4 6 7 8 8 8 8 7 7 7 7 7 7 6 6 6 6 5 5 4 3 3 3 3 2 2 1 1
6 7 9 9 8 10 12 10 11 11 10 11 11 6 4 5 6 7 7 8 8 7 7 7 7 7 6 7 7 6 6 6 6 6 5 5 4 3 3 3 3 2 1 1
7 8 7 8 8 12 4 3 6 9 10 9 9 6 5 5 5 5 6 7 7 7 6 6 6 6 6 6 7 6 6 7 6 6 5 5 4 4 3 3 2 2 1 1
8 8 7 8 10 10 5 4 5 8 9 7 7 6 6 5 5 6 6 6 6 5 5 5 5 6 6 6 7 7 7 7 6 6 5 5 5 4 4 3 3 2 1 1
8 8 9 9 10 10 2 3 1 6 8 4 5 6 6 7 8 5 7 6 5 4 4 4 5 5 6 6 7 7 7 7 7 6 5 5 4 4 4 3 3 2 2 2
9 9 11 11 10 6 3 2 4 8 2 1 3 4 6 6 3 2 5 5 4 4 4 5 5 5 5 6 7 7 7 7 6 6 5 5 4 4 4 3 3 3 3 2
8 8 9 9 10 5 4 2 3 4 4 3 2 3 4 2 1 2 4 5 5 4 5 6 5 5 5 5 7 7 6 5 5 5 5 5 4 4 3 3 3 3 3 4
5 4 4 4 3 4 2 1 3 4 3 3 2 2 2 3 3 3 4 4 4 4 4 4 5 5 5 5 6 7 6 5 5 5 5 4 4 4 3 4 4 4 4 4
3 2 4 4 2 1 0 2 3 4 4 3 2 1 2 3 3 4 4 4 4 4 4 4 5 5 4 5 5 5 5 5 5 5 5 4 4 4 4 3 4 4 4 4
3 3 4 5 3 2 2 3 4 4 3 2 1 1 1 2 3 3 4 4 4 4 3 4 4 4 4 4 4 4 4 5 5 5 5 4 4 3 3 3 2 3 3 2
4 5 6 4 2 4 3 4 4 3 3 2 1 1 1 1 2 3 4 4 4 4 4 4 4 4 3 4 4 4 4 5 5 5 5 4 4 3 3 3 2 0 2 1
Wind_Direction
195 214 215 214 226 255 243 236 223 200 180 222 223 217 196 189 196 192 188 180 177 171 164 162 165 165 165 166 172 179 183 178 183 185 195 186 182 182 176 171 158 209 228 187
201 219 221 217 216 229 233 231 216 184 177 234 224 218 205 198 202 198 193 183 180 174 166 161 164 165 166 172 175 178 180 177 192 182 191 193 185 188 174 164 146 193 201 208
219 202 197 206 205 217 225 235 227 208 189 216 232 215 202 200 201 196 197 185 178 178 170 167 170 170 168 170 176 177 177 177 189 186 190 176 171 188 177 186 172 183 204 217
224 203 200 208 211 220 220 222 236 221 222 208 226 240 187 195 198 200 197 188 180 176 176 175 173 171 170 170 165 164 167 172 177 186 191 192 191 199 200 207 174 174 183 201
208 201 208 214 213 222 231 211 225 229 238 242 222 253 190 189 205 204 197 193 189 182 178 177 174 171 172 168 160 156 156 163 170 182 181 194 201 203 204 201 176 207 179 193
228 209 222 223 213 211 197 197 208 226 234 238 230 246 223 192 212 202 194 194 190 182 176 173 170 169 168 166 161 155 154 160 167 174 174 185 189 206 222 210 192 205 192 194
212 205 208 215 206 195 209 214 212 212 219 229 202 239 232 170 197 201 191 188 183 181 177 174 172 170 169 167 163 158 158 160 164 167 175 184 199 213 217 230 208 222 214 199
211 200 194 205 216 207 211 227 239 246 239 222 198 234 179 156 177 196 187 180 179 177 173 175 175 176 173 171 166 159 160 160 162 167 173 177 198 224 211 226 248 222 248 256
229 215 178 199 216 226 212 225 249 262 257 249 220 217 196 194 194 189 183 181 181 176 172 172 168 167 167 164 164 161 160 160 164 168 171 170 180 224 223 195 226 230 263 261
251 235 195 192 207 218 241 230 232 246 246 249 234 231 222 192 193 184 184 184 180 176 167 163 158 158 155 153 152 154 156 157 159 163 172 160 165 180 196 203 140 71 355 316
246 240 204 199 215 213 208 216 232 247 251 254 251 237 151 182 185 187 183 179 174 170 165 162 161 158 155 153 154 156 155 155 158 159 152 144 152 168 179 178 170 157 187 302
236 254 233 216 215 242 229 230 226 238 243 249 262 248 99 143 171 178 174 170 167 167 166 165 161 160 160 158 158 158 159 161 164 162 155 148 145 145 163 161 159 157 166 192
219 240 234 211 200 208 224 227 233 242 248 245 250 226 126 152 174 173 171 167 168 171 169 166 162 165 168 168 168 163 165 164 164 161 157 149 156 148 143 128 131 152 155 165
240 239 248 251 254 219 224 226 231 238 243 244 247 248 193 189 193 185 178 175 175 174 172 173 168 171 172 174 173 169 169 168 166 161 159 154 155 148 137 125 116 110 117 119
237 241 248 263 271 251 236 230 229 237 251 257 254 248 236 210 199 189 181 177 179 181 179 178 176 171 174 176 175 173 171 171 168 168 162 156 153 147 139 135 126 118 110 108
234 248 249 248 243 244 244 235 232 237 244 252 253 252 226 210 190 185 187 184 189 190 186 182 180 174 176 177 178 173 171 170 168 163 156 149 149 149 146 149 146 128 104 59
222 233 241 243 233 242 238 230 230 234 240 249 253 251 209 208 203 200 193 192 193 190 187 186 184 181 179 180 176 174 171 168 164 163 159 157 159 157 156 157 143 130 118 96
238 235 239 245 230 235 223 213 240 243 245 249 257 250 229 226 215 206 204 199 194 190 188 186 182 176 178 178 174 172 171 169 167 168 167 162 163 163 159 155 145 144 140 133
228 235 241 242 237 237 200 198 225 244 249 247 249 244 229 209 211 207 205 206 198 191 184 181 179 175 175 176 174 171 173 173 175 174 171 169 169 167 166 164 166 170 170 166
200 227 242 239 248 244 193 131 246 257 239 221 241 237 215 202 222 201 180 187 188 184 176 172 171 171 171 172 173 175 177 180 181 176 172 171 174 177 180 178 184 183 192 202
199 210 231 240 246 249 46 108 211 236 280 17 256 236 209 215 269 107 151 167 170 169 169 169 170 172 170 172 174 180 183 185 181 176 174 175 180 188 192 187 196 205 214 213
225 222 221 234 242 236 74 182 245 344 354 328 291 248 218 202 169 157 165 166 168 170 175 176 173 171 167 173 179 183 188 186 181 179 179 183 191 203 188 191 203 209 216 215
242 270 267 255 269 41 52 11 4 333 320 320 301 255 215 199 188 180 170 169 172 171 175 178 174 170 170 179 188 187 185 183 179 180 182 187 195 204 203 207 208 207 209 228
201 248 250 235 219 248 298 314 322 322 316 309 303 267 219 207 193 180 172 165 167 167 169 172 173 174 176 186 191 185 182 182 182 187 189 193 200 207 205 217 221 221 219 225
286 241 243 240 250 256 256 316 323 319 310 300 313 300 264 200 191 185 174 170 166 161 165 169 170 173 176 181 180 183 184 185 191 196 199 203 206 205 211 215 234 241 242 259
260 265 266 276 297 285 294 312 315 302 297 298 294 283 267 233 197 179 168 165 164 163 164 168 173 179 180 180 182 190 192 192 196 202 207 210 211 209 220 214 211 193 238 156